Location: Al Mulaqqa?ah
(24.1833°N, 32.8833°E)
Time: 09:21:37
(UTC+00:00)

IRIS - Pass Details

Date: 26 September 2021
Orbit: 281 x 2631 km, 41.1° (Epoch: 16 October)

Event Time Altitude Azimuth Distance (km) Brightness Sun altitude
Rises 17:04:31 0° 231° (SW) 2,003 8.4 -19.9°
Reaches altitude 10° 17:06:10 10° 230° (SW) 1,275 7.2 -20.3°
Enters shadow 17:08:23 59° 217° (SW) 466 4.5 -20.8°
